NOAA NWS Hourly Roundups by Site

Regional Weather Roundup for Bismarck, ND

To Select Another Site Choose from List

Select Site:  

000
ASUS43 KBIS 050210
RWRBIS

NWR BROADCAST TEXT
NATIONAL WEATHER SERVICE BISMARCK ND
900 PM CDT SAT APR 04 2020

NOTE: "FAIR" INDICATES FEW OR NO CLOUDS BELOW 12,000 FEET WITH NO
SIGNIFICANT WEATHER AND/OR OBSTRUCTIONS TO VISIBILITY.


CITY           SKY/WX    TMP DP  RH WIND       PRES   REMARKS
WILLISTON      FAIR      32  23  69 NW9       29.89R
MINOT          CLOUDY    34  28  79 SE8       29.91R
MINOT AFB      FAIR      32  29  87 SE9       29.90R
BISMARCK       FAIR      32  29  88 E3        29.95R
DICKINSON      FAIR      36  24  62 NW8       29.87R
GARRISON         N/A     31  29  92 SE8       29.90R
HETTINGER ARPT FAIR      36  24  62 CALM      29.89R
JAMESTOWN      FAIR      27  23  85 SE14      30.01S WCI  16
CARRINGTON     FAIR      27  23  86 SE12G18   30.02R WCI  16
HAZEN          FAIR      34  30  86 CALM      29.92S
MANDAN         FAIR      28  30 100 SE8       29.94R
OAKES          FAIR      27  27 100 E14       30.03S WCI  15
RUGBY          CLOUDY    27  21  80 SE18G24   29.97F WCI  13
STANLEY        MOCLDY    32  32 100 E5        29.88S
TIOGA          FAIR      32  32 100 CALM      29.89R
WATFORD CITY   FAIR      37  27  65 W9        29.89R
$$

CITY           SKY/WX    TMP DP  RH WIND       PRES   REMARKS
GRAND FORKS    MOCLDY    24  15  68 E3        30.10F
GRAND FORKS AF FAIR      24  17  73 CALM      30.10S
DEVILS LAKE    FAIR      23  17  78 SE10      30.04R WCI  12
FARGO          CLOUDY    30  23  75 E7        30.09F
CANDO          FAIR      21  18  86 SE12      30.04R WCI   9
CAVALIER       CLOUDY    23  18  80 S6        30.11R WCI  16
GRAFTON        FAIR      27  21  80 S6        30.13R WCI  20
GWINNER        CLEAR     27  27 100 E10       30.06R WCI  17
LANGDON        MOCLDY    23  18  80 SE16      30.03F WCI  10
ROLLA          FAIR      21  16  79 S12       29.99R WCI   9
WALHALLA       MOCLDY    23  14  68 SE7       30.10R WCI  15
$$

CITY           SKY/WX    TMP DP  RH WIND       PRES   REMARKS
ABERDEEN       FAIR      35  29  78 SE9       30.00R
MOBRIDGE       FAIR      37  28  70 E8        29.90R
BUFFALO          N/A     39  21  48 N12       29.84R
RAPID CITY     FAIR      35  23  61 NE9       29.87R
GLASGOW        FAIR      33  22  63 N7        29.89R
SIDNEY         FAIR      31  23  72 NW5       29.91R
WOLF POINT     FAIR      34  24  67 N6        29.91R
GLENDIVE       FAIR      32  24  72 N9        29.90R
MILES CITY     FAIR      36  24  62 NE9       29.85S
BAKER          FAIR      36  24  62 N6        29.88R
$$

CITY           SKY/WX    TMP DP  RH WIND       PRES   REMARKS
BILLINGS       FAIR      43  19  38 NE10      29.78R
GREAT FALLS    FAIR      28  17  63 NE15      29.77S WCI  16
REGINA         MOCLDY    28  25  86 VRB2      29.89R
ESTEVAN        CLOUDY    30  27  86 E9        29.89R
$$



 

View Past Reports for Bismarck, ND.

Products Courtesy of NOAA-NWS
NWS Information Parsing Script by Ken True at Saratoga Weather - Script by SE Lincoln Weather.